Regional Weather Roundup
Issued by NWS

Home | Current Version | Previous Version | Text Only | Print | Product List | Glossary On
Versions: 1 2 3 4 5 6 7 8 9 10 11 12 13 14 15 16 17 18 19 20 21 22 23 24 25 26 27
000
ASUS45 KBOI 250710
RWRID

IDAHO REGIONAL WEATHER ROUNDUP
NATIONAL WEATHER SERVICE BOISE ID
100 AM MDT WED MAY 25 2016

NOTE: "FAIR" INDICATES FEW OR NO CLOUDS BELOW 12000 FEET
WITH NO SIGNIFICANT WEATHER AND/OR OBSTRUCTIONS TO VISIBILITY

IDZ012-014-250800-
SOUTHWEST IDAHO


CITY           SKY/WX    TMP DP  RH WIND       PRES   REMARKS
BOISE          MOCLDY    59  38  45 NW8       29.88S
CALDWELL       MOCLDY    54  42  64 W9        29.90R
MOUNTAIN HOME  PTCLDY    53  38  56 W10       29.89R
$$

IDZ016-017-250800-
SOUTHCENTRAL IDAHO


CITY           SKY/WX    TMP DP  RH WIND       PRES   REMARKS
BURLEY         CLEAR     49  41  74 S13       29.91R
JEROME         PTCLDY    49  41  74 S8        29.91S
TWIN FALLS     PTCLDY    48  40  73 S14       29.92R
$$

IDZ019>023-250800-
SOUTHEAST IDAHO


CITY           SKY/WX    TMP DP  RH WIND       PRES   REMARKS
IDAHO FALLS    LGT RAIN  48  43  82 SE6       29.95R
POCATELLO      CLOUDY    48  44  86 N8        29.93R
REXBURG        CLOUDY    45  42  89 E7        29.97S
$$

IDZ006-010-011-018-031-032-250800-
CENTRAL IDAHO MOUNTAINS


CITY           SKY/WX    TMP DP  RH WIND       PRES   REMARKS
MCCALL         CLEAR     44  35  70 N5        29.95R
HAILEY         CLOUDY    46  37  71 NW8       29.94S
STANLEY          N/A     39  32  76 CALM      29.98R
SALMON         MOCLDY    50  37  62 S10       29.93S
CHALLIS        CLOUDY    45  41  86 CALM      29.96S
$$

IDZ002-004-006-007-026-250800-
NORTHERN IDAHO


CITY           SKY/WX    TMP DP  RH WIND       PRES   REMARKS
LEWISTON       CLEAR     54  45  71 S6        29.93R
LOWELL           N/A     48  46  93 N3        29.99R
COEUR D`ALENE  CLEAR     48  45  87 E3        29.92S
MULLAN PASS    FOG       39  39 100 NW6       29.98S VSB 1/4 WCI  35
$$




USA.gov is the U.S. government's official web portal to all federal, state and local government web resources and services.